{"data":{"norad_id":58152,"intl_designator":"2023-166C","name":"STARLINK-30833","alt_names":[],"object_type":"PAYLOAD","status":"ACTIVE","operator":null,"country":"US","launch_date":"2023-10-29","launch_site_code":"AFWTR","launch_vehicle":null,"mission":null,"orbit_class":"UNKNOWN","rcs_meters":null,"size_class":null,"mass_kg":null,"dimensions":null,"purposes":["comms"],"wikipedia_slug":null,"has_3d_model":false,"image_url":null,"decayed_at":null,"tle_current":{"epoch":"2026-09-20T15:43:40.724544Z","epoch_age_seconds":127006,"freshness":"FRESH","line1":"1 58152U 23166C   26263.65533246  .00001153  00000+0  48898-4 0  9992","line2":"2 58152  53.1601  32.9925 0001266  87.2365 272.8781 15.31713174163047","mean_motion":15.31713174,"eccentricity":0.0001266,"inclination_deg":53.1601,"raan_deg":32.9925,"arg_perigee_deg":87.2365,"mean_anomaly_deg":272.8781,"bstar":4.8898e-5,"rev_number":16304,"period_min":94.012379369925,"perigee_km":469.83366164272,"apogee_km":471.56778735456,"semimajor_km":6848.8377244986,"source":"CELESTRAK","updated_at":"2026-09-21T09:00:33.795793Z"}}}